Time,TemperatureF,DewpointF,PressureIn,WindDirection,WindDirectionDegrees,WindSpeedMPH,WindSpeedGustMPH,Humidity,HourlyPrecipIn,Conditions,Clouds,dailyrainin,SoftwareType,DateUTC
2014-10-31 00:04:00,40.3,36.1,30.03,NE,45,0.0,0.0,85,0.00,,,0.00,WUHU21623XXSP,2014-10-31 04:04:00,
2014-10-31 00:09:00,40.1,35.9,30.02,NE,45,0.0,0.0,85,0.00,,,0.00,WUHU21623XXSP,2014-10-31 04:09:00,
2014-10-31 00:14:00,39.9,35.7,30.02,NE,45,0.0,0.0,85,0.00,,,0.00,WUHU21623XXSP,2014-10-31 04:14:00,
2014-10-31 00:19:00,39.9,36.0,30.02,NE,45,0.0,0.0,86,0.00,,,0.00,WUHU21623XXSP,2014-10-31 04:19:00,
2014-10-31 00:24:00,39.7,35.9,30.02,NE,45,0.0,0.0,86,0.00,,,0.00,WUHU21623XXSP,2014-10-31 04:24:00,
2014-10-31 00:29:00,39.7,35.9,30.02,NE,45,0.0,0.0,86,0.00,,,0.00,WUHU21623XXSP,2014-10-31 04:29:00,
2014-10-31 00:34:00,39.7,36.2,30.02,NE,45,0.0,0.0,87,0.00,,,0.00,WUHU21623XXSP,2014-10-31 04:34:00,
2014-10-31 00:39:00,39.6,36.0,30.02,NE,45,0.0,0.0,87,0.00,,,0.00,WUHU21623XXSP,2014-10-31 04:39:00,
2014-10-31 00:44:00,39.4,35.8,30.02,NE,45,0.0,0.0,87,0.00,,,0.00,WUHU21623XXSP,2014-10-31 04:44:00,
2014-10-31 00:49:00,39.4,35.8,30.02,NE,45,0.0,0.0,87,0.00,,,0.00,WUHU21623XXSP,2014-10-31 04:49:00,
2014-10-31 00:54:00,39.0,35.5,30.02,NE,45,0.0,0.0,87,0.00,,,0.00,WUHU21623XXSP,2014-10-31 04:54:00,
2014-10-31 00:59:00,39.0,35.5,30.02,NE,45,0.0,0.0,87,0.00,,,0.00,WUHU21623XXSP,2014-10-31 04:59:00,
2014-10-31 01:04:00,39.0,35.5,30.01,NE,45,0.0,0.0,87,0.00,,,0.00,WUHU21623XXSP,2014-10-31 05:04:00,
2014-10-31 01:09:00,39.0,35.5,30.01,NE,45,0.0,0.0,87,0.00,,,0.00,WUHU21623XXSP,2014-10-31 05:09:00,
2014-10-31 01:14:00,38.8,35.6,30.01,NE,45,0.0,0.0,88,0.00,,,0.00,WUHU21623XXSP,2014-10-31 05:14:00,
2014-10-31 01:19:00,38.8,35.6,30.01,NE,45,0.0,0.0,88,0.00,,,0.00,WUHU21623XXSP,2014-10-31 05:19:00,
2014-10-31 01:24:00,38.8,35.6,30.01,NE,45,0.0,0.0,88,0.00,,,0.00,WUHU21623XXSP,2014-10-31 05:24:00,
2014-10-31 01:29:00,38.5,35.2,30.01,NE,45,0.0,0.0,88,0.00,,,0.00,WUHU21623XXSP,2014-10-31 05:29:00,
2014-10-31 01:34:00,38.5,35.2,30.02,NE,45,0.0,0.0,88,0.00,,,0.00,WUHU21623XXSP,2014-10-31 05:34:00,
2014-10-31 01:39:00,38.5,35.2,30.01,NE,45,0.0,0.0,88,0.00,,,0.00,WUHU21623XXSP,2014-10-31 05:39:00,
2014-10-31 01:44:00,38.3,35.3,30.02,NE,45,0.0,0.0,89,0.00,,,0.00,WUHU21623XXSP,2014-10-31 05:44:00,
2014-10-31 01:49:00,38.1,35.1,30.02,NE,45,0.0,0.0,89,0.00,,,0.00,WUHU21623XXSP,2014-10-31 05:49:00,
2014-10-31 01:54:00,38.1,35.1,30.02,NE,45,0.0,0.0,89,0.00,,,0.00,WUHU21623XXSP,2014-10-31 05:54:00,
2014-10-31 01:59:00,38.1,35.1,30.02,NE,45,0.0,0.0,89,0.00,,,0.00,WUHU21623XXSP,2014-10-31 05:59:00,
2014-10-31 02:04:00,38.1,35.1,30.02,NE,45,0.0,0.0,89,0.00,,,0.00,WUHU21623XXSP,2014-10-31 06:04:00,
2014-10-31 02:09:00,38.1,35.1,30.01,NE,45,0.0,0.0,89,0.00,,,0.00,WUHU21623XXSP,2014-10-31 06:09:00,
2014-10-31 02:14:00,37.9,35.0,30.02,NE,45,0.0,0.0,89,0.00,,,0.00,WUHU21623XXSP,2014-10-31 06:14:00,
2014-10-31 02:19:00,37.9,35.0,30.01,NE,45,0.0,0.0,89,0.00,,,0.00,WUHU21623XXSP,2014-10-31 06:19:00,
2014-10-31 02:24:00,37.9,35.0,30.01,NE,45,0.0,0.0,89,0.00,,,0.00,WUHU21623XXSP,2014-10-31 06:24:00,
2014-10-31 02:29:00,37.8,34.8,30.01,NE,45,0.0,0.0,89,0.00,,,0.00,WUHU21623XXSP,2014-10-31 06:29:00,
2014-10-31 02:34:00,37.6,34.8,30.01,NE,45,0.0,0.0,89,0.00,,,0.00,WUHU21623XXSP,2014-10-31 06:34:00,
2014-10-31 02:39:00,37.6,34.9,30.01,NE,45,0.0,0.0,90,0.00,,,0.00,WUHU21623XXSP,2014-10-31 06:39:00,
2014-10-31 02:44:00,37.6,34.9,30.01,NE,45,0.0,0.0,90,0.00,,,0.00,WUHU21623XXSP,2014-10-31 06:44:00,
2014-10-31 02:49:00,37.6,34.9,30.01,NE,45,0.0,0.0,90,0.00,,,0.00,WUHU21623XXSP,2014-10-31 06:49:00,
2014-10-31 02:54:00,37.6,34.9,30.01,NE,45,0.0,0.0,90,0.00,,,0.00,WUHU21623XXSP,2014-10-31 06:54:00,
2014-10-31 02:59:00,37.6,34.9,30.01,NE,45,0.0,0.0,90,0.00,,,0.00,WUHU21623XXSP,2014-10-31 06:59:00,
2014-10-31 03:04:00,37.6,34.9,30.01,NE,45,0.0,0.0,90,0.00,,,0.00,WUHU21623XXSP,2014-10-31 07:04:00,
2014-10-31 03:09:00,37.6,34.9,30.01,NE,45,0.0,0.0,90,0.00,,,0.00,WUHU21623XXSP,2014-10-31 07:09:00,
2014-10-31 03:14:00,37.2,34.5,30.01,NNE,22,0.0,0.0,90,0.00,,,0.00,WUHU21623XXSP,2014-10-31 07:14:00,
2014-10-31 03:19:00,37.2,34.5,30.01,NNE,22,0.0,0.0,90,0.00,,,0.00,WUHU21623XXSP,2014-10-31 07:19:00,
2014-10-31 03:24:00,37.0,34.3,30.01,NNE,22,0.0,0.0,90,0.00,,,0.00,WUHU21623XXSP,2014-10-31 07:24:00,
2014-10-31 03:29:00,37.0,34.3,30.01,NNE,22,0.0,0.0,90,0.00,,,0.00,WUHU21623XXSP,2014-10-31 07:29:00,
2014-10-31 03:34:00,37.0,34.3,30.01,NNE,22,0.0,0.0,90,0.00,,,0.00,WUHU21623XXSP,2014-10-31 07:34:00,
2014-10-31 03:39:00,37.0,34.6,30.01,NNE,22,0.0,0.0,91,0.00,,,0.00,WUHU21623XXSP,2014-10-31 07:39:00,
2014-10-31 03:44:00,36.9,34.4,30.00,NNE,22,0.0,0.0,91,0.00,,,0.00,WUHU21623XXSP,2014-10-31 07:44:00,
2014-10-31 03:49:00,36.7,34.3,30.00,NNE,22,0.0,0.0,91,0.00,,,0.00,WUHU21623XXSP,2014-10-31 07:49:00,
2014-10-31 03:54:00,36.5,33.8,30.00,NNE,22,0.0,0.0,90,0.00,,,0.00,WUHU21623XXSP,2014-10-31 07:54:00,
2014-10-31 03:59:00,36.5,33.8,30.01,NNE,22,0.0,0.0,90,0.00,,,0.00,WUHU21623XXSP,2014-10-31 07:59:00,
2014-10-31 04:04:00,36.7,34.3,30.00,NNE,22,0.0,0.0,91,0.00,,,0.00,WUHU21623XXSP,2014-10-31 08:04:00,
2014-10-31 04:09:00,36.9,34.4,30.00,NNE,22,0.0,0.0,91,0.00,,,0.00,WUHU21623XXSP,2014-10-31 08:09:00,
2014-10-31 04:14:00,37.0,34.6,30.00,NNE,22,0.0,0.0,91,0.00,,,0.00,WUHU21623XXSP,2014-10-31 08:14:00,
2014-10-31 04:19:00,37.0,34.6,30.00,NNE,22,0.0,0.0,91,0.00,,,0.00,WUHU21623XXSP,2014-10-31 08:19:00,
2014-10-31 04:24:00,37.2,34.8,30.00,NNE,22,0.0,0.0,91,0.00,,,0.00,WUHU21623XXSP,2014-10-31 08:24:00,
2014-10-31 04:29:00,37.4,35.0,30.00,NNE,22,0.0,0.0,91,0.00,,,0.00,WUHU21623XXSP,2014-10-31 08:29:00,
2014-10-31 04:34:00,37.4,35.0,30.00,NNE,22,0.0,0.0,91,0.00,,,0.00,WUHU21623XXSP,2014-10-31 08:34:00,